| time (UTC) | temp F | wind direction | speed MPH | gust MPH | rain 1hr in | rain 24hr in | rain mn in | humidity % | barometer mb |
| 20260902211444 | 71 | 84 | 3.0 | 5.0 | 0.00 | 0.07 | 0.07 | 99 | 1020.2 |
| 20260902210939 | 71 | 100 | 3.0 | 3.0 | 0.00 | 0.07 | 0.07 | 99 | 1020.1 |
| 20260902210434 | 71 | 36 | 3.0 | 3.0 | 0.00 | 0.07 | 0.07 | 99 | 1019.9 |
| 20260902205932 | 71 | 70 | 1.0 | 1.0 | 0.00 | 0.07 | 0.07 | 99 | 1019.9 |
| 20260902205428 | 71 | 124 | 1.0 | 1.0 | 0.00 | 0.07 | 0.07 | 99 | 1019.9 |
| 20260902204923 | 71 | 107 | 2.0 | 3.0 | 0.00 | 0.07 | 0.07 | 99 | 1019.5 |
| 20260902204423 | 71 | 114 | 1.0 | 1.0 | 0.00 | 0.07 | 0.07 | 99 | 1019.8 |
| 20260902203919 | 71 | 94 | 1.0 | 1.0 | 0.00 | 0.07 | 0.07 | 99 | 1020.0 |
| 20260902203414 | 71 | 101 | 0.0 | 1.0 | 0.00 | 0.07 | 0.07 | 99 | 1019.9 |
| 20260902202913 | 71 | 108 | 1.0 | 1.0 | 0.00 | 0.07 | 0.07 | 99 | 1019.8 |
| 20260902202409 | 71 | 77 | 1.0 | 1.0 | 0.00 | 0.07 | 0.07 | 99 | 1020.1 |
| 20260902201906 | 71 | 27 | 3.0 | 3.0 | 0.00 | 0.07 | 0.07 | 99 | 1020.0 |
| 20260902201405 | 71 | 50 | 1.0 | 1.0 | 0.00 | 0.07 | 0.07 | 99 | 1020.3 |
| 20260902200900 | 71 | 112 | 1.0 | 1.0 | 0.00 | 0.07 | 0.07 | 99 | 1020.4 |
| 20260902200355 | 71 | 93 | 0.0 | 0.0 | 0.00 | 0.07 | 0.07 | 99 | 1020.6 |
| 20260902195850 | 71 | 128 | 1.0 | 1.0 | 0.00 | 0.07 | 0.07 | 99 | 1020.3 |
| 20260902195349 | 71 | 128 | 0.0 | 1.0 | 0.00 | 0.07 | 0.07 | 99 | 1020.3 |
| 20260902194845 | 71 | 102 | 0.0 | 0.0 | 0.00 | 0.07 | 0.07 | 99 | 1020.4 |
| 20260902194339 | 71 | 133 | 2.0 | 2.0 | 0.00 | 0.07 | 0.07 | 99 | 1020.5 |
| 20260902193834 | 71 | 93 | 2.0 | 3.0 | 0.00 | 0.07 | 0.07 | 99 | 1020.3 |
| 20260902193330 | 71 | 76 | 2.0 | 2.0 | 0.00 | 0.07 | 0.07 | 99 | 1020.3 |
| 20260902192829 | 71 | 86 | 1.0 | 2.0 | 0.00 | 0.07 | 0.07 | 99 | 1020.1 |
| 20260902192327 | 71 | 86 | 2.0 | 2.0 | 0.00 | 0.07 | 0.07 | 99 | 1020.5 |
| 20260902191822 | 71 | 137 | 0.0 | 1.0 | 0.00 | 0.07 | 0.07 | 99 | 1020.3 |
| 20260902191317 | 71 | 88 | 2.0 | 2.0 | 0.00 | 0.07 | 0.07 | 99 | 1020.3 |
| 20260902190813 | 71 | 73 | 2.0 | 2.0 | 0.00 | 0.07 | 0.07 | 99 | 1020.4 |
| 20260902190312 | 70 | 66 | 2.0 | 3.0 | 0.00 | 0.07 | 0.07 | 99 | 1020.3 |
| 20260902185808 | 71 | 89 | 0.0 | 1.0 | 0.00 | 0.07 | 0.07 | 99 | 1020.5 |
| 20260902185306 | 70 | 9 | 1.0 | 2.0 | 0.00 | 0.07 | 0.07 | 99 | 1020.5 |
| 20260902184759 | 70 | 129 | 1.0 | 1.0 | 0.00 | 0.07 | 0.07 | 99 | 1020.7 |
| 20260902184254 | 71 | 118 | 1.0 | 1.0 | 0.00 | 0.07 | 0.07 | 99 | 1020.8 |
| 20260902183750 | 71 | 71 | 1.0 | 2.0 | 0.00 | 0.07 | 0.07 | 99 | 1021.1 |
| 20260902183246 | 71 | 68 | 1.0 | 1.0 | 0.00 | 0.07 | 0.07 | 99 | 1021.0 |
| 20260902182742 | 71 | 106 | 0.0 | 0.0 | 0.00 | 0.07 | 0.07 | 99 | 1021.3 |
| 20260902182238 | 71 | 162 | 0.0 | 0.0 | 0.00 | 0.07 | 0.07 | 99 | 1021.5 |
| 20260902181735 | 0 | 0.0 | 0.0 | 0.00 | 0.00 | 0.00 | 1021.2 | ||
| 20260902181234 | 0 | 0.0 | 0.0 | 0.00 | 0.00 | 0.00 | 1021.4 | ||
| 20260902180729 | 71 | 227 | 0.0 | 0.0 | 0.00 | 0.07 | 0.07 | 99 | 1021.5 |
| 20260902180224 | 71 | 227 | 0.0 | 0.0 | 0.00 | 0.07 | 0.07 | 99 | 1021.5 |
| 20260902175719 | 71 | 227 | 0.0 | 0.0 | 0.00 | 0.07 | 0.07 | 99 | 1021.5 |
| 20260902175215 | 71 | 244 | 0.0 | 0.0 | 0.07 | 0.07 | 0.07 | 99 | 1021.8 |
| 20260902174711 | 71 | 245 | 0.0 | 0.0 | 0.00 | 0.06 | 0.06 | 99 | 1022.1 |
| 20260902174207 | 71 | 266 | 0.0 | 1.0 | 0.05 | 0.06 | 0.06 | 99 | 1021.6 |
| 20260902173702 | 71 | 257 | 1.0 | 1.0 | 0.05 | 0.06 | 0.06 | 99 | 1021.9 |
| 20260902173157 | 71 | 281 | 1.0 | 1.0 | 0.07 | 0.05 | 0.05 | 99 | 1021.7 |
| 20260902172657 | 70 | 176 | 0.0 | 0.0 | 0.07 | 0.05 | 0.05 | 99 | 1021.6 |
| 20260902172156 | 70 | 142 | 0.0 | 0.0 | 0.05 | 0.04 | 0.04 | 99 | 1021.5 |
| 20260902171651 | 70 | 156 | 0.0 | 0.0 | 0.12 | 0.04 | 0.04 | 99 | 1021.2 |
| 20260902171147 | 70 | 133 | 0.0 | 0.0 | 0.07 | 0.03 | 0.03 | 99 | 1021.2 |
| 20260902170643 | 70 | 138 | 0.0 | 1.0 | 0.00 | 0.02 | 0.02 | 99 | 1021.4 |
| 20260902170138 | 70 | 141 | 0.0 | 0.0 | 0.00 | 0.02 | 0.02 | 99 | 1022.0 |
| 20260902165633 | 71 | 131 | 0.0 | 0.0 | 0.00 | 0.02 | 0.02 | 99 | 1022.3 |
| 20260902165132 | 71 | 163 | 0.0 | 0.0 | 0.00 | 0.02 | 0.02 | 99 | 1022.5 |
| 20260902164628 | 70 | 104 | 0.0 | 0.0 | 0.00 | 0.02 | 0.02 | 99 | 1022.2 |
| 20260902164127 | 70 | 150 | 0.0 | 0.0 | 0.00 | 0.02 | 0.02 | 99 | 1022.6 |
| 20260902163622 | 70 | 38 | 1.0 | 2.0 | 0.00 | 0.02 | 0.02 | 99 | 1022.3 |
| 20260902163121 | 70 | 133 | 0.0 | 0.0 | 0.00 | 0.02 | 0.02 | 99 | 1022.0 |
| 20260902162620 | 70 | 153 | 0.0 | 0.0 | 0.00 | 0.02 | 0.02 | 99 | 1021.8 |
| 20260902162115 | 70 | 141 | 2.0 | 2.0 | 0.00 | 0.02 | 0.02 | 99 | 1022.1 |
| 20260902161610 | 70 | 145 | 0.0 | 0.0 | 0.00 | 0.02 | 0.02 | 99 | 1022.2 |
| 20260902161106 | 70 | 127 | 1.0 | 1.0 | 0.00 | 0.02 | 0.02 | 99 | 1022.4 |
| 20260902160602 | 70 | 148 | 0.0 | 0.0 | 0.00 | 0.02 | 0.02 | 99 | 1022.3 |
| 20260902160057 | 70 | 66 | 3.0 | 3.0 | 0.00 | 0.02 | 0.02 | 99 | 1022.0 |
| 20260902155555 | 70 | 137 | 0.0 | 0.0 | 0.00 | 0.02 | 0.02 | 99 | 1022.2 |
| 20260902155054 | 70 | 22 | 0.0 | 0.0 | 0.00 | 0.02 | 0.02 | 99 | 1022.0 |
| 20260902154549 | 70 | 136 | 1.0 | 2.0 | 0.00 | 0.02 | 0.02 | 99 | 1021.8 |
| 20260902154044 | 70 | 138 | 0.0 | 1.0 | 0.00 | 0.02 | 0.02 | 99 | 1021.8 |
| 20260902153543 | 70 | 141 | 0.0 | 0.0 | 0.00 | 0.02 | 0.02 | 99 | 1021.7 |
| 20260902153039 | 69 | 136 | 0.0 | 1.0 | 0.00 | 0.02 | 0.02 | 99 | 1021.8 |
| 20260902152535 | 70 | 118 | 0.0 | 1.0 | 0.00 | 0.02 | 0.02 | 99 | 1021.8 |
| 20260902152030 | 70 | 140 | 0.0 | 0.0 | 0.00 | 0.02 | 0.02 | 99 | 1021.5 |
| 20260902151526 | 70 | 84 | 2.0 | 2.0 | 0.00 | 0.02 | 0.02 | 99 | 1021.6 |
| 20260902151025 | 70 | 163 | 0.0 | 0.0 | 0.00 | 0.02 | 0.02 | 99 | 1021.6 |
| 20260902150521 | 70 | 134 | 1.0 | 1.0 | 0.00 | 0.02 | 0.02 | 99 | 1021.6 |
| 20260902150016 | 70 | 138 | 0.0 | 0.0 | 0.00 | 0.02 | 0.02 | 99 | 1021.8 |
| 20260902145511 | 69 | 152 | 0.0 | 1.0 | 0.00 | 0.02 | 0.02 | 99 | 1022.0 |
| 20260902145011 | 69 | 106 | 2.0 | 2.0 | 0.00 | 0.02 | 0.02 | 99 | 1021.9 |
| 20260902144508 | 69 | 64 | 1.0 | 1.0 | 0.00 | 0.02 | 0.02 | 99 | 1022.1 |
| 20260902144002 | 69 | 353 | 0.0 | 1.0 | 0.00 | 0.02 | 0.02 | 99 | 1021.9 |
| 20260902143457 | 69 | 116 | 1.0 | 2.0 | 0.00 | 0.02 | 0.02 | 99 | 1021.9 |
| 20260902142953 | 69 | 132 | 0.0 | 0.0 | 0.00 | 0.02 | 0.02 | 99 | 1021.7 |
| 20260902142448 | 69 | 118 | 0.0 | 1.0 | 0.00 | 0.02 | 0.02 | 99 | 1021.9 |
| 20260902141943 | 69 | 147 | 0.0 | 0.0 | 0.00 | 0.02 | 0.02 | 99 | 1022.1 |
| 20260902141438 | 69 | 107 | 0.0 | 0.0 | 0.00 | 0.02 | 0.02 | 99 | 1022.1 |
| 20260902140938 | 69 | 62 | 0.0 | 1.0 | 0.00 | 0.02 | 0.02 | 99 | 1021.9 |
| 20260902140433 | 69 | 32 | 2.0 | 2.0 | 0.00 | 0.02 | 0.02 | 99 | 1022.0 |
| 20260902135933 | 69 | 86 | 1.0 | 1.0 | 0.00 | 0.02 | 0.02 | 99 | 1021.6 |
| 20260902135429 | 69 | 134 | 4.0 | 6.0 | 0.00 | 0.02 | 0.02 | 99 | 1021.5 |
| 20260902134927 | 69 | 64 | 1.0 | 3.0 | 0.00 | 0.02 | 0.02 | 99 | 1021.7 |
| 20260902134423 | 69 | 83 | 1.0 | 2.0 | 0.00 | 0.02 | 0.02 | 99 | 1021.4 |
| 20260902133918 | 69 | 90 | 1.0 | 1.0 | 0.00 | 0.02 | 0.02 | 99 | 1021.6 |
| 20260902133413 | 69 | 63 | 3.0 | 5.0 | 0.00 | 0.02 | 0.02 | 99 | 1021.6 |
| 20260902132908 | 69 | 122 | 2.0 | 2.0 | 0.00 | 0.02 | 0.02 | 99 | 1021.7 |
| 20260902132403 | 69 | 181 | 1.0 | 2.0 | 0.00 | 0.02 | 0.02 | 99 | 1021.7 |
| 20260902131858 | 69 | 73 | 3.0 | 3.0 | 0.00 | 0.02 | 0.02 | 99 | 1021.3 |
| 20260902131355 | 69 | 101 | 1.0 | 1.0 | 0.00 | 0.02 | 0.02 | 99 | 1021.7 |
| 20260902130854 | 69 | 73 | 1.0 | 1.0 | 0.00 | 0.02 | 0.02 | 99 | 1021.2 |
| 20260902130350 | 69 | 86 | 1.0 | 2.0 | 0.00 | 0.02 | 0.02 | 99 | 1021.1 |
| 20260902125845 | 69 | 90 | 1.0 | 2.0 | 0.00 | 0.02 | 0.02 | 99 | 1021.2 |
| 20260902125341 | 69 | 134 | 1.0 | 1.0 | 0.00 | 0.02 | 0.02 | 99 | 1021.1 |
| 20260902124837 | 69 | 93 | 3.0 | 3.0 | 0.00 | 0.02 | 0.02 | 99 | 1021.1 |
| 20260902124333 | 69 | 101 | 1.0 | 1.0 | 0.00 | 0.02 | 0.02 | 99 | 1021.3 |
| 20260902123827 | 69 | 95 | 2.0 | 2.0 | 0.00 | 0.02 | 0.02 | 99 | 1021.1 |
| 20260902123324 | 68 | 106 | 3.0 | 3.0 | 0.00 | 0.02 | 0.02 | 99 | 1021.2 |
| 20260902122822 | 69 | 62 | 1.0 | 1.0 | 0.00 | 0.02 | 0.02 | 99 | 1021.0 |
| 20260902122318 | 68 | 141 | 0.0 | 1.0 | 0.00 | 0.02 | 0.02 | 99 | 1021.0 |
| 20260902121818 | 68 | 54 | 1.0 | 2.0 | 0.00 | 0.02 | 0.02 | 99 | 1021.1 |
| 20260902121313 | 68 | 126 | 1.0 | 1.0 | 0.00 | 0.02 | 0.02 | 99 | 1020.9 |
| 20260902120808 | 68 | 136 | 1.0 | 1.0 | 0.00 | 0.02 | 0.02 | 99 | 1021.1 |
| 20260902120305 | 68 | 68 | 1.0 | 2.0 | 0.00 | 0.02 | 0.02 | 99 | 1021.1 |
| 20260902115759 | 68 | 38 | 2.0 | 3.0 | 0.00 | 0.02 | 0.02 | 99 | 1021.0 |
| 20260902115255 | 68 | 133 | 2.0 | 2.0 | 0.00 | 0.02 | 0.02 | 99 | 1020.9 |
| 20260902114746 | 68 | 127 | 0.0 | 1.0 | 0.00 | 0.02 | 0.02 | 99 | 1021.0 |
| 20260902114242 | 68 | 63 | 2.0 | 2.0 | 0.00 | 0.02 | 0.02 | 99 | 1020.8 |
| 20260902113742 | 68 | 71 | 1.0 | 1.0 | 0.00 | 0.02 | 0.02 | 99 | 1020.6 |
| 20260902113237 | 68 | 129 | 1.0 | 1.0 | 0.00 | 0.02 | 0.02 | 99 | 1020.6 |
| 20260902112736 | 68 | 135 | 1.0 | 2.0 | 0.00 | 0.02 | 0.02 | 99 | 1020.6 |
| 20260902112234 | 68 | 90 | 3.0 | 3.0 | 0.05 | 0.02 | 0.02 | 99 | 1020.8 |
| 20260902111729 | 68 | 90 | 3.0 | 3.0 | 0.05 | 0.02 | 0.02 | 99 | 1020.6 |
| 20260902111225 | 69 | 152 | 2.0 | 3.0 | 0.00 | 0.01 | 0.01 | 99 | 1020.8 |
| 20260902110720 | 69 | 152 | 2.0 | 3.0 | 0.00 | 0.01 | 0.01 | 99 | 1020.7 |
| 20260902110216 | 69 | 152 | 2.0 | 3.0 | 0.00 | 0.01 | 0.01 | 99 | 1020.8 |
| 20260902105715 | 69 | 107 | 0.0 | 1.0 | 0.00 | 0.01 | 0.01 | 99 | 1020.8 |
| 20260902105211 | 69 | 107 | 0.0 | 1.0 | 0.00 | 0.01 | 0.01 | 99 | 1020.8 |
| 20260902104706 | 69 | 101 | 0.0 | 1.0 | 0.00 | 0.01 | 0.01 | 99 | 1020.9 |
| 20260902104202 | 69 | 153 | 0.0 | 0.0 | 0.00 | 0.01 | 0.01 | 99 | 1020.6 |
| 20260902103701 | 69 | 89 | 0.0 | 1.0 | 0.00 | 0.01 | 0.01 | 99 | 1020.9 |
| 20260902103156 | 69 | 126 | 1.0 | 1.0 | 0.00 | 0.01 | 0.01 | 99 | 1020.4 |
| 20260902102652 | 69 | 115 | 2.0 | 2.0 | 0.00 | 0.01 | 0.01 | 99 | 1020.5 |
| 20260902102150 | 69 | 85 | 1.0 | 1.0 | 0.00 | 0.01 | 0.01 | 99 | 1020.5 |
| 20260902101645 | 69 | 108 | 1.0 | 1.0 | 0.00 | 0.01 | 0.01 | 99 | 1020.4 |
| 20260902101144 | 69 | 123 | 1.0 | 1.0 | 0.00 | 0.01 | 0.01 | 99 | 1020.5 |
| 20260902100639 | 69 | 89 | 1.0 | 1.0 | 0.00 | 0.01 | 0.01 | 99 | 1020.3 |
| 20260902100134 | 69 | 88 | 1.0 | 2.0 | 0.00 | 0.01 | 0.01 | 99 | 1020.3 |
| 20260902095632 | 69 | 128 | 1.0 | 2.0 | 0.00 | 0.01 | 0.01 | 99 | 1020.2 |
| 20260902095127 | 69 | 108 | 2.0 | 2.0 | 0.00 | 0.01 | 0.01 | 99 | 1020.4 |
| 20260902094622 | 69 | 93 | 1.0 | 1.0 | 0.00 | 0.01 | 0.01 | 99 | 1020.3 |
| 20260902094118 | 69 | 115 | 1.0 | 2.0 | 0.00 | 0.01 | 0.01 | 99 | 1020.3 |
| 20260902093617 | 69 | 96 | 1.0 | 1.0 | 0.00 | 0.01 | 0.01 | 99 | 1020.4 |
| 20260902093113 | 69 | 65 | 0.0 | 1.0 | 0.00 | 0.01 | 0.01 | 99 | 1020.3 |
| 20260902092612 | 69 | 24 | 3.0 | 3.0 | 0.00 | 0.01 | 0.01 | 99 | 1020.4 |
| 20260902092108 | 70 | 71 | 2.0 | 2.0 | 0.00 | 0.01 | 0.01 | 99 | 1020.4 |
| 20260902091603 | 70 | 80 | 1.0 | 1.0 | 0.00 | 0.01 | 0.01 | 99 | 1020.2 |
| 20260902091059 | 70 | 86 | 1.0 | 1.0 | 0.00 | 0.01 | 0.01 | 99 | 1020.1 |
| 20260902090555 | 70 | 118 | 1.0 | 1.0 | 0.07 | 0.01 | 0.01 | 99 | 1020.2 |
| 20260902090053 | 70 | 148 | 0.0 | 0.0 | 0.07 | 0.01 | 0.01 | 99 | 1019.9 |
| 20260902085548 | 70 | 144 | 0.0 | 0.0 | 0.00 | 0.00 | 0.00 | 99 | 1020.1 |
| 20260902085043 | 70 | 92 | 3.0 | 3.0 | 0.00 | 0.00 | 0.00 | 99 | 1019.7 |
| 20260902084539 | 70 | 155 | 1.0 | 1.0 | 0.00 | 0.00 | 0.00 | 99 | 1020.1 |
| 20260902084035 | 70 | 70 | 2.0 | 2.0 | 0.00 | 0.00 | 0.00 | 99 | 1019.9 |
| 20260902083525 | 70 | 156 | 0.0 | 1.0 | 0.00 | 0.00 | 0.00 | 99 | 1019.8 |
| 20260902083025 | 70 | 98 | 0.0 | 1.0 | 0.00 | 0.00 | 0.00 | 99 | 1019.9 |
| 20260902082520 | 70 | 85 | 2.0 | 2.0 | 0.00 | 0.00 | 0.00 | 99 | 1019.6 |
| 20260902082016 | 71 | 102 | 0.0 | 1.0 | 0.00 | 0.00 | 0.00 | 99 | 1019.6 |
| 20260902081513 | 71 | 66 | 1.0 | 2.0 | 0.00 | 0.00 | 0.00 | 99 | 1019.4 |
| 20260902081012 | 71 | 81 | 3.0 | 3.0 | 0.00 | 0.00 | 0.00 | 99 | 1019.4 |
| 20260902080508 | 71 | 156 | 0.0 | 1.0 | 0.00 | 0.00 | 0.00 | 99 | 1019.2 |
| 20260902080003 | 71 | 108 | 2.0 | 3.0 | 0.00 | 0.00 | 0.00 | 99 | 1019.3 |
| 20260902075459 | 71 | 101 | 1.0 | 2.0 | 0.00 | 0.00 | 0.00 | 99 | 1019.3 |
| 20260902074954 | 71 | 106 | 0.0 | 1.0 | 0.00 | 0.00 | 0.00 | 99 | 1019.2 |
| 20260902074449 | 71 | 93 | 1.0 | 2.0 | 0.00 | 0.00 | 0.00 | 99 | 1019.5 |
| 20260902073950 | 71 | 164 | 0.0 | 0.0 | 0.00 | 0.00 | 0.00 | 99 | 1019.4 |
| 20260902073446 | 71 | 174 | 0.0 | 0.0 | 0.00 | 0.00 | 0.00 | 99 | 1019.3 |
| 20260902072942 | 71 | 148 | 0.0 | 0.0 | 0.00 | 0.00 | 0.00 | 99 | 1019.2 |
| 20260902072438 | 71 | 117 | 0.0 | 0.0 | 0.00 | 0.00 | 0.00 | 99 | 1019.1 |
| 20260902071934 | 70 | 96 | 0.0 | 0.0 | 0.00 | 0.00 | 0.00 | 99 | 1019.1 |
| 20260902071433 | 70 | 99 | 0.0 | 0.0 | 0.00 | 0.00 | 0.00 | 99 | 1019.1 |
| 20260902070930 | 70 | 118 | 0.0 | 1.0 | 0.00 | 0.00 | 0.00 | 99 | 1019.2 |
| 20260902070425 | 70 | 87 | 0.0 | 0.0 | 0.00 | 0.00 | 0.00 | 99 | 1019.2 |
| 20260902065924 | 70 | 85 | 0.0 | 0.0 | 0.00 | 0.00 | 0.00 | 99 | 1019.0 |
| 20260902065419 | 70 | 83 | 0.0 | 0.0 | 0.00 | 0.00 | 0.00 | 99 | 1019.0 |
| 20260902064914 | 70 | 90 | 1.0 | 1.0 | 0.00 | 0.00 | 0.00 | 99 | 1019.2 |
| 20260902064410 | 70 | 152 | 0.0 | 0.0 | 0.00 | 0.00 | 0.00 | 99 | 1019.3 |
| 20260902063906 | 70 | 86 | 0.0 | 1.0 | 0.00 | 0.00 | 0.00 | 99 | 1019.3 |
| 20260902063405 | 70 | 187 | 0.0 | 0.0 | 0.00 | 0.00 | 0.00 | 99 | 1019.3 |
| 20260902062901 | 70 | 138 | 0.0 | 1.0 | 0.00 | 0.00 | 0.00 | 99 | 1019.0 |
| 20260902062359 | 69 | 162 | 0.0 | 0.0 | 0.00 | 0.00 | 0.00 | 99 | 1018.9 |
| 20260902061859 | 70 | 167 | 0.0 | 0.0 | 0.00 | 0.00 | 0.00 | 99 | 1019.2 |
| 20260902061354 | 70 | 201 | 0.0 | 0.0 | 0.00 | 0.00 | 0.00 | 99 | 1019.2 |
| 20260902060851 | 70 | 123 | 0.0 | 0.0 | 0.00 | 0.00 | 0.00 | 99 | 1019.0 |
| 20260902060346 | 70 | 144 | 0.0 | 0.0 | 0.00 | 0.00 | 0.00 | 99 | 1019.2 |
| 20260902055842 | 69 | 186 | 0.0 | 0.0 | 0.00 | 0.00 | 0.00 | 99 | 1019.1 |
| 20260902055338 | 69 | 186 | 0.0 | 0.0 | 0.00 | 0.00 | 0.00 | 99 | 1019.1 |
| 20260902054833 | 70 | 186 | 0.0 | 0.0 | 0.00 | 0.00 | 0.00 | 99 | 1019.1 |
| 20260902054329 | 70 | 198 | 0.0 | 0.0 | 0.00 | 0.00 | 0.00 | 99 | 1019.1 |
| 20260902053823 | 70 | 199 | 0.0 | 0.0 | 0.00 | 0.00 | 0.00 | 99 | 1019.0 |
| 20260902053318 | 70 | 219 | 0.0 | 0.0 | 0.00 | 0.00 | 0.00 | 99 | 1019.3 |
| 20260902052818 | 70 | 194 | 0.0 | 0.0 | 0.00 | 0.00 | 0.00 | 99 | 1018.9 |
| 20260902052313 | 70 | 182 | 0.0 | 0.0 | 0.00 | 0.00 | 0.00 | 99 | 1018.9 |
| 20260902051808 | 70 | 182 | 0.0 | 0.0 | 0.00 | 0.00 | 0.00 | 99 | 1019.0 |
| 20260902051307 | 70 | 145 | 0.0 | 0.0 | 0.00 | 0.00 | 0.00 | 99 | 1018.8 |
| 20260902050802 | 70 | 157 | 0.0 | 0.0 | 0.00 | 0.00 | 0.00 | 99 | 1019.2 |
| 20260902050257 | 71 | 174 | 0.0 | 0.0 | 0.00 | 0.00 | 0.00 | 99 | 1019.2 |
| 20260902045757 | 71 | 171 | 0.0 | 0.0 | 0.00 | 0.00 | 0.00 | 99 | 1019.0 |
| 20260902045253 | 71 | 181 | 0.0 | 0.0 | 0.00 | 0.00 | 0.00 | 99 | 1019.5 |
| 20260902044749 | 71 | 181 | 0.0 | 0.0 | 0.00 | 0.00 | 0.00 | 99 | 1019.4 |
| 20260902044244 | 71 | 158 | 0.0 | 0.0 | 0.00 | 0.00 | 0.00 | 99 | 1019.6 |
| 20260902043739 | 71 | 169 | 0.0 | 0.0 | 0.00 | 0.00 | 0.00 | 99 | 1020.0 |
| 20260902043235 | 71 | 117 | 0.0 | 0.0 | 0.00 | 0.00 | 0.00 | 99 | 1019.6 |
| 20260902042733 | 71 | 117 | 0.0 | 0.0 | 0.00 | 0.00 | 0.00 | 99 | 1019.7 |
| 20260902042228 | 71 | 117 | 0.0 | 0.0 | 0.00 | 0.00 | 0.00 | 99 | 1019.5 |
| 20260902041724 | 71 | 140 | 0.0 | 0.0 | 0.00 | 0.00 | 0.00 | 99 | 1019.5 |
| 20260902041218 | 71 | 222 | 0.0 | 0.0 | 0.00 | 0.00 | 0.00 | 99 | 1019.4 |
| 20260902040718 | 71 | 174 | 0.0 | 0.0 | 0.00 | 0.00 | 0.00 | 99 | 1019.3 |
| 20260902040213 | 71 | 285 | 1.0 | 1.0 | 0.00 | 0.00 | 0.00 | 99 | 1019.3 |
| 20260902035712 | 71 | 169 | 0.0 | 0.0 | 0.00 | 0.13 | 0.13 | 99 | 1019.2 |
| 20260902035208 | 71 | 284 | 1.0 | 1.0 | 0.00 | 0.13 | 0.13 | 99 | 1019.0 |
| 20260902034707 | 71 | 241 | 0.0 | 0.0 | 0.00 | 0.13 | 0.13 | 99 | 1019.1 |
| 20260902034206 | 71 | 191 | 0.0 | 0.0 | 0.00 | 0.13 | 0.13 | 99 | 1018.6 |
| 20260902033705 | 71 | 188 | 0.0 | 0.0 | 0.00 | 0.13 | 0.13 | 99 | 1018.5 |
| 20260902033200 | 71 | 154 | 0.0 | 0.0 | 0.00 | 0.13 | 0.13 | 99 | 1018.4 |
| 20260902032658 | 71 | 141 | 0.0 | 0.0 | 0.00 | 0.13 | 0.13 | 99 | 1018.4 |
| 20260902032154 | 71 | 185 | 0.0 | 0.0 | 0.00 | 0.13 | 0.13 | 99 | 1018.3 |
| 20260902031648 | 71 | 220 | 0.0 | 0.0 | 0.00 | 0.13 | 0.13 | 99 | 1018.1 |
| 20260902031144 | 71 | 210 | 0.0 | 0.0 | 0.00 | 0.13 | 0.13 | 99 | 1018.2 |
| 20260902030639 | 71 | 150 | 0.0 | 0.0 | 0.00 | 0.13 | 0.13 | 99 | 1018.2 |
| 20260902030138 | 71 | 151 | 0.0 | 0.0 | 0.00 | 0.13 | 0.13 | 99 | 1018.2 |
| 20260902025638 | 71 | 69 | 1.0 | 1.0 | 0.00 | 0.13 | 0.13 | 99 | 1018.1 |
| 20260902025134 | 71 | 208 | 0.0 | 0.0 | 0.00 | 0.13 | 0.13 | 99 | 1018.0 |
| 20260902024629 | 71 | 89 | 1.0 | 2.0 | 0.00 | 0.13 | 0.13 | 99 | 1018.0 |
| 20260902024124 | 71 | 85 | 2.0 | 2.0 | 0.00 | 0.13 | 0.13 | 99 | 1018.0 |
| 20260902023620 | 71 | 154 | 0.0 | 0.0 | 0.00 | 0.13 | 0.13 | 99 | 1017.7 |
| 20260902023114 | 72 | 201 | 0.0 | 0.0 | 0.00 | 0.13 | 0.13 | 99 | 1018.0 |
| 20260902022614 | 71 | 227 | 1.0 | 1.0 | 0.00 | 0.13 | 0.13 | 99 | 1018.0 |
| 20260902022110 | 71 | 59 | 0.0 | 1.0 | 0.00 | 0.13 | 0.13 | 99 | 1017.7 |
| 20260902021605 | 71 | 93 | 2.0 | 2.0 | 0.00 | 0.13 | 0.13 | 99 | 1017.4 |
| 20260902021100 | 71 | 164 | 0.0 | 1.0 | 0.00 | 0.13 | 0.13 | 99 | 1017.8 |
| 20260902020556 | 71 | 160 | 0.0 | 0.0 | 0.00 | 0.13 | 0.13 | 99 | 1017.7 |
| 20260902020051 | 71 | 157 | 1.0 | 1.0 | 0.00 | 0.13 | 0.13 | 99 | 1017.4 |
| 20260902015547 | 72 | 217 | 0.0 | 0.0 | 0.00 | 0.13 | 0.13 | 99 | 1017.1 |
| 20260902015037 | 72 | 150 | 1.0 | 1.0 | 0.00 | 0.13 | 0.13 | 99 | 1017.1 |
| 20260902014533 | 72 | 144 | 0.0 | 0.0 | 0.00 | 0.13 | 0.13 | 99 | 1016.8 |
| 20260902014028 | 72 | 150 | 0.0 | 1.0 | 0.00 | 0.13 | 0.13 | 99 | 1016.8 |
| 20260902013527 | 72 | 147 | 0.0 | 0.0 | 0.00 | 0.13 | 0.13 | 99 | 1016.5 |
| 20260902013023 | 72 | 197 | 0.0 | 0.0 | 0.00 | 0.13 | 0.13 | 99 | 1016.7 |
| 20260902012519 | 72 | 276 | 1.0 | 2.0 | 0.00 | 0.13 | 0.13 | 99 | 1016.4 |
| 20260902012014 | 72 | 257 | 1.0 | 2.0 | 0.00 | 0.13 | 0.13 | 99 | 1015.7 |
| 20260902011509 | 72 | 235 | 2.0 | 2.0 | 0.00 | 0.13 | 0.13 | 99 | 1016.0 |
| 20260902011009 | 72 | 18 | 0.0 | 0.0 | 0.00 | 0.13 | 0.13 | 99 | 1016.2 |
| 20260902010503 | 72 | 37 | 0.0 | 1.0 | 0.00 | 0.13 | 0.13 | 99 | 1016.3 |
| 20260902010004 | 72 | 257 | 2.0 | 2.0 | 0.00 | 0.13 | 0.13 | 99 | 1016.2 |
| 20260902005502 | 72 | 217 | 0.0 | 0.0 | 0.00 | 0.13 | 0.13 | 99 | 1016.1 |
| 20260902004959 | 72 | 267 | 1.0 | 1.0 | 0.00 | 0.13 | 0.13 | 99 | 1016.1 |
| 20260902004458 | 72 | 207 | 0.0 | 0.0 | 0.00 | 0.13 | 0.13 | 99 | 1016.3 |
| 20260902003954 | 72 | 251 | 1.0 | 2.0 | 0.00 | 0.13 | 0.13 | 99 | 1016.8 |
| 20260902003448 | 72 | 278 | 2.0 | 2.0 | 0.00 | 0.13 | 0.13 | 99 | 1016.4 |
| 20260902002944 | 72 | 205 | 1.0 | 1.0 | 0.00 | 0.13 | 0.13 | 99 | 1016.3 |
| 20260902002439 | 72 | 199 | 0.0 | 1.0 | 0.00 | 0.13 | 0.13 | 99 | 1016.0 |
| 20260902001938 | 72 | 104 | 3.0 | 3.0 | 0.00 | 0.13 | 0.13 | 99 | 1015.8 |
| 20260902001433 | 73 | 214 | 4.0 | 5.0 | 0.00 | 0.13 | 0.13 | 99 | 1016.1 |
| 20260902000928 | 73 | 222 | 0.0 | 1.0 | 0.00 | 0.13 | 0.13 | 99 | 1016.1 |
| 20260902000423 | 73 | 157 | 2.0 | 3.0 | 0.05 | 0.13 | 0.13 | 99 | 1016.5 |
| 20260901235918 | 73 | 313 | 4.0 | 6.0 | 0.05 | 0.13 | 0.13 | 99 | 1017.2 |
| 20260901235413 | 74 | 277 | 4.0 | 6.0 | 0.42 | 0.12 | 0.12 | 98 | 1017.2 |
| 20260901234908 | 74 | 258 | 8.0 | 11.0 | 0.42 | 0.12 | 0.12 | 97 | 1016.7 |
| 20260901234402 | 78 | 325 | 4.0 | 5.0 | 0.07 | 0.05 | 0.05 | 97 | 1016.7 |
| 20260901233857 | 80 | 274 | 7.0 | 8.0 | 0.07 | 0.05 | 0.05 | 98 | 1016.9 |
| 20260901233352 | 81 | 216 | 1.0 | 2.0 | 0.05 | 0.04 | 0.04 | 98 | 1015.5 |
| 20260901232848 | 82 | 198 | 1.0 | 1.0 | 0.12 | 0.04 | 0.04 | 97 | 1015.3 |
| 20260901232343 | 82 | 191 | 0.0 | 0.0 | 0.12 | 0.03 | 0.03 | 94 | 1015.2 |
| 20260901231839 | 82 | 202 | 1.0 | 1.0 | 0.05 | 0.02 | 0.02 | 93 | 1015.4 |
| 20260901231335 | 83 | 158 | 0.0 | 0.0 | 0.00 | 0.01 | 0.01 | 92 | 1015.1 |
| 20260901230831 | 84 | 158 | 0.0 | 0.0 | 0.00 | 0.01 | 0.01 | 90 | 1015.0 |
| 20260901230330 | 84 | 159 | 0.0 | 0.0 | 0.00 | 0.01 | 0.01 | 88 | 1015.0 |
| 20260901225826 | 84 | 161 | 0.0 | 1.0 | 0.00 | 0.01 | 0.01 | 87 | 1014.8 |
| 20260901225325 | 84 | 203 | 1.0 | 1.0 | 0.00 | 0.01 | 0.01 | 87 | 1015.2 |
| 20260901224820 | 84 | 170 | 0.0 | 0.0 | 0.00 | 0.01 | 0.01 | 87 | 1014.9 |
| 20260901224317 | 84 | 185 | 0.0 | 0.0 | 0.00 | 0.01 | 0.01 | 88 | 1015.1 |
| 20260901223813 | 84 | 185 | 0.0 | 0.0 | 0.00 | 0.01 | 0.01 | 88 | 1015.0 |
| 20260901223308 | 84 | 168 | 0.0 | 0.0 | 0.00 | 0.01 | 0.01 | 87 | 1015.1 |
| 20260901222804 | 85 | 162 | 0.0 | 0.0 | 0.00 | 0.01 | 0.01 | 87 | 1015.6 |
| 20260901222300 | 86 | 161 | 0.0 | 0.0 | 0.00 | 0.01 | 0.01 | 86 | 1015.2 |
| 20260901221755 | 86 | 179 | 0.0 | 0.0 | 0.00 | 0.01 | 0.01 | 86 | 1015.3 |
| 20260901221250 | 86 | 178 | 0.0 | 0.0 | 0.00 | 0.01 | 0.01 | 85 | 1015.1 |
| 20260901220744 | 87 | 205 | 0.0 | 0.0 | 0.00 | 0.01 | 0.01 | 82 | 1015.2 |
| 20260901220244 | 88 | 216 | 0.0 | 1.0 | 0.00 | 0.01 | 0.01 | 81 | 1015.6 |
| 20260901215742 | 88 | 206 | 0.0 | 0.0 | 0.00 | 0.01 | 0.01 | 80 | 1015.0 |
| 20260901215237 | 89 | 203 | 0.0 | 1.0 | 0.00 | 0.01 | 0.01 | 78 | 1015.0 |
| 20260901214736 | 89 | 246 | 1.0 | 1.0 | 0.00 | 0.01 | 0.01 | 78 | 1015.1 |
| 20260901214229 | 89 | 282 | 1.0 | 1.0 | 0.00 | 0.01 | 0.01 | 78 | 1015.1 |
| 20260901213729 | 89 | 216 | 3.0 | 3.0 | 0.00 | 0.01 | 0.01 | 77 | 1015.2 |
| 20260901213229 | 89 | 248 | 2.0 | 3.0 | 0.00 | 0.01 | 0.01 | 76 | 1015.4 |
| 20260901212729 | 90 | 229 | 2.0 | 2.0 | 0.00 | 0.01 | 0.01 | 76 | 1015.6 |
| 20260901212225 | 89 | 233 | 2.0 | 3.0 | 0.00 | 0.01 | 0.01 | 77 | 1015.6 |